Powrót do katalogu

SITRO-AIS-39

AktywnyNawigacjaSSO
NORAD 61778·PAYLOAD·🇷🇺 Russia
Ta nazwa satelity nie została jeszcze potwierdzona przez oficjalne źródła.

Wystrzelony Nov 4, 2024 z Vostochny Cosmodrome

Loading…

Następne Przeloty (najbliższe 24 godziny)

TLE

ŚwieżeSource: Space-Track

Epoka: Sep 14, 2026, 10:36 UTC

1 61778U 24199AV  26257.44224429  .00060135  00000-0  56201-3 0  9999
2 61778  97.2698 135.7428 0002965 338.1667  21.9467 15.67098813148356

Śledź SITRO-AIS-39 w czasie rzeczywistym z AllMySat

Download on the App Store